When you browse on this site, cookies collect data to enhance your experience and personalize the content and advertising you see.
Visit our Privacy Policy to learn more. By continuing to use the site, you agree to this use of cookies and data.
  • In Latvia
  • List of Countries
  • For 7 days
  • Water Temperature
  • Satellite Maps
  • Weather Map
  • Weather Widgets
  • user-avatar
    Login

    Hourly Weather Samanchi

    Today, 18 January, Friday

    Time Temperature Precipitation Wind Pressure Humidity
    00:00 +10°C° 0 mm 4 mps 704 mmHg 21%
    01:00 +10°C° 0 mm 4 mps 703 mmHg 22%
    02:00 +10°C° 0 mm 4 mps 703 mmHg 23%
    03:00 +10°C° 0 mm 4 mps 703 mmHg 25%
    04:00 +10°C° 0 mm 4 mps 703 mmHg 28%
    05:00 +11°C° 0 mm 4 mps 702 mmHg 34%
    06:00 +11°C° 0.3 mm 4 mps 702 mmHg 39%
    07:00 +11°C° 0.3 mm 4 mps 702 mmHg 45%
    08:00 +10°C° 0.3 mm 5 mps 702 mmHg 51%
    09:00 +10°C° 0.4 mm 5 mps 702 mmHg 52%
    10:00 +12°C° 0.4 mm 5 mps 703 mmHg 52%
    11:00 +13°C° 0.4 mm 4 mps 703 mmHg 53%
    12:00 +13°C° 0.2 mm 4 mps 703 mmHg 53%
    13:00 +13°C° 0.2 mm 4 mps 703 mmHg 53%
    14:00 +14°C° 0.2 mm 3 mps 703 mmHg 53%
    15:00 +13°C° 0.2 mm 3 mps 703 mmHg 55%
    16:00 +14°C° 0.2 mm 2 mps 704 mmHg 57%
    17:00 +13°C° 0.2 mm 1 mps 704 mmHg 60%
    18:00 +13°C° 0.1 mm 1 mps 704 mmHg 62%
    19:00 +12°C° 0.1 mm 1 mps 705 mmHg 64%
    20:00 +11°C° 0.1 mm 1 mps 705 mmHg 66%
    21:00 +11°C° 0.1 mm 1 mps 705 mmHg 68%
    22:00 +11°C° 0.1 mm 1 mps 706 mmHg 71%
    23:00 +10°C° 0.1 mm 1 mps 706 mmHg 73%

    Tomorrow, 19 January, Saturday

    Time Temperature Precipitation Wind Pressure Humidity
    00:00 +9°C° 0 mm 2 mps 706 mmHg 72%
    01:00 +8°C° 0 mm 2 mps 706 mmHg 72%
    02:00 +8°C° 0 mm 2 mps 706 mmHg 71%
    03:00 +8°C° 0 mm 3 mps 706 mmHg 68%
    04:00 +8°C° 0 mm 3 mps 706 mmHg 66%
    05:00 +7°C° 0 mm 3 mps 706 mmHg 63%
    06:00 +7°C° 0 mm 3 mps 706 mmHg 59%
    07:00 +7°C° 0 mm 3 mps 707 mmHg 54%
    08:00 +6°C° 0 mm 4 mps 707 mmHg 50%
    09:00 +9°C° 0 mm 3 mps 707 mmHg 46%
    10:00 +10°C° 0 mm 3 mps 707 mmHg 41%
    11:00 +12°C° 0 mm 3 mps 707 mmHg 37%
    12:00 +13°C° 0 mm 2 mps 706 mmHg 38%
    13:00 +14°C° 0 mm 2 mps 706 mmHg 39%
    14:00 +14°C° 0 mm 2 mps 705 mmHg 41%
    15:00 +14°C° 0.1 mm 2 mps 705 mmHg 43%
    16:00 +13°C° 0.1 mm 2 mps 705 mmHg 45%
    17:00 +13°C° 0.1 mm 2 mps 705 mmHg 47%
    18:00 +12°C° 0 mm 2 mps 705 mmHg 48%
    19:00 +12°C° 0 mm 2 mps 705 mmHg 49%
    20:00 +10°C° 0 mm 2 mps 705 mmHg 50%
    21:00 +9°C° 0.6 mm 2 mps 705 mmHg 55%
    22:00 +9°C° 0.6 mm 2 mps 705 mmHg 60%
    23:00 +8°C° 0.6 mm 2 mps 706 mmHg 65%

    Day after tomorrow, 20 January, Sunday

    Time Temperature Precipitation Wind Pressure Humidity
    00:00 +8°C° 0.5 mm 2 mps 706 mmHg 67%
    01:00 +8°C° 0.5 mm 2 mps 706 mmHg 68%
    02:00 +8°C° 0.5 mm 2 mps 706 mmHg 69%
    03:00 +9°C° 0.2 mm 1 mps 706 mmHg 70%
    04:00 +9°C° 0.2 mm 1 mps 706 mmHg 71%
    05:00 +8°C° 0.2 mm 1 mps 706 mmHg 71%
    06:00 +8°C° 0.2 mm 1 mps 706 mmHg 74%
    07:00 +8°C° 0.2 mm 1 mps 707 mmHg 76%
    08:00 +8°C° 0.2 mm 1 mps 707 mmHg 78%
    09:00 +8°C° 0.5 mm 1 mps 708 mmHg 79%
    10:00 +8°C° 0.5 mm 1 mps 708 mmHg 81%
    11:00 +8°C° 0.5 mm 1 mps 709 mmHg 82%
    12:00 +8°C° 0.6 mm 1 mps 709 mmHg 82%
    13:00 +8°C° 0.6 mm 1 mps 709 mmHg 82%
    14:00 +8°C° 0.6 mm 1 mps 709 mmHg 82%
    15:00 +7°C° 0.3 mm 1 mps 709 mmHg 82%
    16:00 +6°C° 0.3 mm 2 mps 710 mmHg 83%
    17:00 +6°C° 0.3 mm 2 mps 710 mmHg 84%
    18:00 +6°C° 0.6 mm 2 mps 711 mmHg 86%
    19:00 +6°C° 0.6 mm 1 mps 711 mmHg 88%
    20:00 +6°C° 0.6 mm 1 mps 712 mmHg 90%
    21:00 +6°C° 0.6 mm 1 mps 712 mmHg 91%
    22:00 +5°C° 0.6 mm 1 mps 712 mmHg 91%
    23:00 +5°C° 0.6 mm 1 mps 713 mmHg 92%

    21 January, Monday

    Time Temperature Precipitation Wind Pressure Humidity
    00:00 +5°C° 0.4 mm 1 mps 713 mmHg 92%
    01:00 +5°C° 0.4 mm 1 mps 713 mmHg 92%
    02:00 +4°C° 0.4 mm 1 mps 713 mmHg 92%
    03:00 +4°C° 0.2 mm 1 mps 713 mmHg 91%
    04:00 +4°C° 0.2 mm 1 mps 713 mmHg 90%
    05:00 +2°C° 0.2 mm 0 mps 713 mmHg 90%
    06:00 +2°C° 0.1 mm 0 mps 713 mmHg 88%
    07:00 +2°C° 0.1 mm 0 mps 713 mmHg 86%
    08:00 +2°C° 0.1 mm 0 mps 713 mmHg 85%
    09:00 +4°C° 0 mm 1 mps 713 mmHg 81%
    10:00 +5°C° 0 mm 1 mps 713 mmHg 77%
    11:00 +5°C° 0 mm 1 mps 714 mmHg 74%
    12:00 +5°C° 0 mm 2 mps 713 mmHg 73%
    13:00 +5°C° 0 mm 2 mps 713 mmHg 73%
    14:00 +5°C° 0 mm 2 mps 712 mmHg 72%
    15:00 +5°C° 0 mm 2 mps 712 mmHg 75%
    16:00 +4°C° 0 mm 2 mps 712 mmHg 77%
    17:00 +4°C° 0 mm 2 mps 711 mmHg 80%
    18:00 +3°C° 0 mm 2 mps 711 mmHg 81%
    19:00 +4°C° 0 mm 1 mps 712 mmHg 83%
    20:00 +3°C° 0 mm 1 mps 712 mmHg 84%
    21:00 +3°C° 0 mm 1 mps 712 mmHg 84%
    22:00 +3°C° 0 mm 1 mps 711 mmHg 83%
    23:00 +3°C° 0 mm 1 mps 711 mmHg 83%

    22 January, Tuesday

    Time Temperature Precipitation Wind Pressure Humidity
    00:00 +3°C° 0 mm 1 mps 711 mmHg 83%
    01:00 +2°C° 0 mm 0 mps 710 mmHg 82%
    02:00 +2°C° 0 mm 0 mps 710 mmHg 81%
    03:00 +2°C° 0 mm 0 mps 710 mmHg 81%
    04:00 +2°C° 0 mm 0 mps 709 mmHg 80%
    05:00 +1°C° 0 mm 0 mps 709 mmHg 79%
    06:00 +1°C° 0 mm 0 mps 709 mmHg 79%
    07:00 +1°C° 0 mm 0 mps 709 mmHg 78%
    08:00 +1°C° 0 mm 0 mps 709 mmHg 78%
    09:00 +2°C° 0 mm 0 mps 709 mmHg 73%
    10:00 +3°C° 0 mm 0 mps 709 mmHg 67%
    11:00 +5°C° 0 mm 0 mps 709 mmHg 62%
    12:00 +6°C° 0 mm 1 mps 709 mmHg 59%
    13:00 +7°C° 0 mm 1 mps 708 mmHg 57%
    14:00 +7°C° 0 mm 1 mps 708 mmHg 54%
    15:00 +7°C° 0 mm 1 mps 708 mmHg 55%
    16:00 +7°C° 0 mm 1 mps 708 mmHg 56%
    17:00 +6°C° 0 mm 1 mps 707 mmHg 57%
    18:00 +6°C° 0 mm 1 mps 708 mmHg 58%
    19:00 +5°C° 0 mm 1 mps 708 mmHg 59%
    20:00 +4°C° 0 mm 1 mps 709 mmHg 60%
    21:00 +4°C° 0 mm 1 mps 709 mmHg 58%
    22:00 +4°C° 0 mm 1 mps 709 mmHg 57%
    23:00 +4°C° 0 mm 1 mps 709 mmHg 56%

    23 January, Wednesday

    Time Temperature Precipitation Wind Pressure Humidity
    00:00 +3°C° 0 mm 2 mps 709 mmHg 54%
    01:00 +3°C° 0 mm 2 mps 709 mmHg 53%
    02:00 +2°C° 0 mm 2 mps 709 mmHg 52%
    03:00 +2°C° 0 mm 2 mps 709 mmHg 51%
    04:00 +2°C° 0 mm 2 mps 709 mmHg 51%
    05:00 +2°C° 0 mm 2 mps 710 mmHg 50%
    06:00 +2°C° 0 mm 2 mps 710 mmHg 49%
    07:00 +2°C° 0 mm 2 mps 710 mmHg 49%
    08:00 +2°C° 0 mm 2 mps 711 mmHg 48%
    09:00 +3°C° 0 mm 2 mps 711 mmHg 44%
    10:00 +5°C° 0 mm 2 mps 711 mmHg 40%
    11:00 +6°C° 0 mm 2 mps 712 mmHg 36%
    12:00 +7°C° 0 mm 2 mps 712 mmHg 36%
    13:00 +7°C° 0 mm 2 mps 711 mmHg 36%
    14:00 +9°C° 0 mm 1 mps 711 mmHg 36%
    15:00 +8°C° 0 mm 1 mps 711 mmHg 37%
    16:00 +8°C° 0 mm 1 mps 711 mmHg 38%
    17:00 +8°C° 0 mm 1 mps 711 mmHg 39%
    18:00 +7°C° 0 mm 1 mps 711 mmHg 41%
    19:00 +5°C° 0 mm 2 mps 712 mmHg 42%
    20:00 +4°C° 0 mm 2 mps 712 mmHg 43%
    21:00 +4°C° 0 mm 2 mps 712 mmHg 44%
    22:00 +4°C° 0 mm 2 mps 712 mmHg 45%
    23:00 +4°C° 0 mm 2 mps 712 mmHg 46%
    Show more